Date String (YYYY-MM-DD hh:mm:ss) UTC,Instrument flags,Ambient pressure (hPa),Sample flow (lpm),Bypass flow (lpm),Sample temperature (°C),Ambient temperature (°C),ASC tube jacket temperature (°C),LED temperature (°C),Box temperature (°C),Sample RH (%),Span deviation,Mass concentration (μg/m³),Mass concentration (μg/m³),Mass concentration (μg/m³)
DateTimeUTC,F1_M11,P_M11,Q1_M11,Q2_M11,T1_M11,T2_M11,T3_M11,T4_M11,T5_M11,U1_M11,ZSPAN_M11,X2_M11,X0_M11,X1_M11
2023-01-14 11:00:00,,0820.9,5.00,0.00,23.0,21.6,00.0,31.9,24.8,11.4,0000.0,0002.52,0003.30,0002.12
2023-01-14 11:01:00,,0820.9,5.00,0.00,23.0,21.7,00.0,31.9,24.8,11.2,0000.0,0002.27,0002.99,0001.93
2023-01-14 11:02:00,,0820.9,5.00,0.00,23.0,21.7,00.0,31.9,24.8,11.2,0000.0,0001.98,0002.58,0001.71
2023-01-14 11:03:00,,0820.9,5.00,0.00,23.0,21.7,00.0,31.9,24.8,11.1,0000.0,0001.73,0002.28,0001.49
2023-01-14 11:04:00,,0820.9,5.00,0.00,23.0,21.8,00.0,31.9,24.9,11.1,0000.0,0001.50,0001.99,0001.30
2023-01-14 11:05:00,,0820.9,5.00,0.00,23.1,21.8,00.0,31.9,24.9,10.9,0000.0,0001.25,0001.69,0001.07
2023-01-14 11:06:00,,0820.9,5.00,0.00,23.1,21.8,00.0,31.9,24.9,10.9,0000.0,0001.02,0001.39,0000.89
2023-01-14 11:07:00,,0820.9,5.00,0.00,23.1,21.9,00.0,31.9,24.9,10.9,0000.0,0000.86,0001.16,0000.75
2023-01-14 11:08:00,,0820.8,5.00,0.00,23.1,21.9,00.0,31.9,24.9,10.9,0000.0,0000.82,0001.08,0000.72
2023-01-14 11:09:00,,0820.8,5.00,0.00,23.1,21.9,00.0,31.9,24.9,11.0,0000.0,0000.79,0001.07,0000.69
2023-01-14 11:10:00,,0820.9,5.00,0.00,23.1,21.9,00.0,31.9,25.0,11.0,0000.0,0000.70,0000.96,0000.62
2023-01-14 11:11:00,,0820.8,4.99,0.00,23.1,21.9,00.0,31.9,24.9,11.1,0000.0,0000.62,0000.87,0000.55
2023-01-14 11:12:00,,0820.9,5.00,0.00,23.1,21.9,00.0,31.9,24.9,11.1,0000.0,0000.58,0000.79,0000.52
2023-01-14 11:13:00,,0820.8,5.00,0.00,23.2,21.9,00.0,31.9,25.0,10.9,0000.0,0000.55,0000.70,0000.50
2023-01-14 11:14:00,,0820.9,5.00,0.00,23.2,21.9,00.0,32.0,25.0,10.8,0000.0,0000.53,0000.68,0000.48
2023-01-14 11:15:00,,0820.9,5.00,0.00,23.2,21.9,00.0,32.0,25.0,11.0,0000.0,0000.55,0000.75,0000.47
2023-01-14 11:16:00,,0820.9,5.00,0.00,23.2,21.9,00.0,32.0,25.0,12.8,0000.0,0000.74,0000.98,0000.60
2023-01-14 11:17:00,,0820.9,5.00,0.00,23.2,21.9,00.0,32.0,25.0,13.2,0000.0,0001.04,0001.36,0000.86
2023-01-14 11:18:00,,0820.9,4.99,0.00,23.2,21.9,00.0,32.0,25.0,11.8,0000.0,0001.22,0001.59,0001.04
2023-01-14 11:19:00,,0820.9,4.99,0.00,23.2,21.9,00.0,32.0,25.0,11.8,0000.0,0001.36,0001.78,0001.16
2023-01-14 11:20:00,,0820.9,4.98,0.00,23.2,21.9,00.0,32.0,25.0,11.8,0000.0,0001.58,0002.15,0001.32
2023-01-14 11:21:00,,0820.9,5.01,0.00,23.2,21.9,00.0,32.0,25.0,11.1,0000.0,0001.67,0002.27,0001.39
2023-01-14 11:22:00,,0820.9,5.01,0.00,23.2,22.0,00.0,32.0,25.0,11.7,0000.0,0001.76,0002.39,0001.47
2023-01-14 11:23:00,,0820.8,5.01,0.00,23.2,22.0,00.0,32.0,25.0,11.7,0000.0,0001.90,0002.59,0001.60
2023-01-14 11:24:00,,0820.9,5.00,0.00,23.2,22.0,00.0,32.0,25.0,11.1,0000.0,0001.94,0002.64,0001.63
2023-01-14 11:25:00,,0820.9,5.00,0.00,23.2,21.9,00.0,32.0,25.0,11.4,0000.0,0002.02,0002.76,0001.68
2023-01-14 11:26:00,,0820.9,4.99,0.00,23.2,21.9,00.0,32.0,25.0,12.4,0000.0,0002.15,0002.91,0001.80
2023-01-14 11:27:00,,0820.9,4.99,0.00,23.2,21.9,00.0,32.0,25.0,13.0,0000.0,0002.23,0003.41,0001.89
2023-01-14 11:28:00,,0820.9,5.00,0.00,23.2,21.9,00.0,32.0,25.0,13.1,0000.0,0002.15,0003.86,0001.84
2023-01-14 11:29:00,,0820.8,5.01,0.00,23.2,21.9,00.0,32.0,25.0,13.2,0000.0,0002.21,0003.93,0001.89
2023-01-14 11:30:00,,0820.8,5.01,0.00,23.2,21.9,00.0,32.0,25.0,12.4,0000.0,0002.32,0004.10,0001.96
2023-01-14 11:31:00,,0820.8,5.00,0.00,23.2,21.9,00.0,32.0,25.0,11.9,0000.0,0002.31,0004.06,0001.95
2023-01-14 11:32:00,,0820.8,4.98,0.00,23.2,22.0,00.0,32.0,25.0,11.6,0000.0,0002.35,0004.15,0001.97
2023-01-14 11:33:00,,0820.9,5.01,0.00,23.2,22.0,00.0,32.0,25.0,12.1,0000.0,0002.47,0004.67,0002.04
2023-01-14 11:34:00,,0820.8,5.01,0.00,23.2,22.0,00.0,32.0,25.0,13.2,0000.0,0002.66,0004.98,0002.17
2023-01-14 11:35:00,,0820.8,4.98,0.00,23.2,22.0,00.0,32.0,25.0,13.5,0000.0,0003.01,0005.52,0002.44
2023-01-14 11:36:00,,0820.8,4.99,0.00,23.2,22.0,00.0,32.1,25.0,13.0,0000.0,0003.22,0005.93,0002.70
2023-01-14 11:37:00,,0820.7,5.01,0.00,23.2,22.0,00.0,32.1,25.1,12.3,0000.0,0003.28,0006.02,0002.83
2023-01-14 11:38:00,,0820.7,5.01,0.00,23.2,22.0,00.0,32.1,25.1,12.2,0000.0,0003.30,0005.75,0002.85
2023-01-14 11:39:00,,0820.7,4.99,0.00,23.3,22.0,00.0,32.1,25.1,12.1,0000.0,0003.31,0005.39,0002.86
2023-01-14 11:40:00,,0820.8,4.99,0.00,23.3,22.0,00.0,32.1,25.1,12.6,0000.0,0003.35,0005.59,0002.88
2023-01-14 11:41:00,,0820.8,4.99,0.00,23.3,22.0,00.0,32.1,25.1,13.2,0000.0,0003.53,0005.98,0003.14
2023-01-14 11:42:00,,0820.9,4.99,0.00,23.3,22.0,00.0,32.1,25.1,12.6,0000.0,0003.74,0006.38,0003.37
2023-01-14 11:43:00,,0820.9,5.00,0.00,23.3,22.0,00.0,32.1,25.1,12.9,0000.0,0003.96,0006.84,0003.57
2023-01-14 11:44:00,,0821.0,5.00,0.00,23.3,22.0,00.0,32.1,25.1,13.3,0000.0,0004.27,0007.24,0003.87
2023-01-14 11:45:00,,0821.0,4.99,0.00,23.3,22.0,00.0,32.1,25.1,13.7,0000.0,0004.92,0008.78,0004.45
2023-01-14 11:46:00,,0821.0,4.99,0.00,23.3,22.0,00.0,32.1,25.1,13.3,0000.0,0005.40,0009.40,0004.91
2023-01-14 11:47:00,,0821.0,5.01,0.00,23.3,22.0,00.0,32.1,25.1,13.6,0000.0,0005.89,0010.11,0005.32
2023-01-14 11:48:00,,0821.0,5.00,0.00,23.3,22.0,00.0,32.1,25.1,13.8,0000.0,0006.64,0011.15,0005.99
2023-01-14 11:49:00,,0821.0,5.00,0.00,23.3,22.0,00.0,32.1,25.1,14.0,0000.0,0007.39,0012.12,0006.72
2023-01-14 11:50:00,,0821.1,5.01,0.00,23.3,22.0,00.0,32.1,25.1,14.0,0005.2,0008.18,0013.16,0007.39
2023-01-14 11:51:00,,0821.1,5.00,0.00,23.3,22.0,00.0,32.1,25.1,13.9,0004.9,0008.82,0015.34,0007.99
2023-01-14 11:52:00,,0821.0,5.01,0.00,23.3,22.0,00.0,32.1,25.1,14.0,0004.9,0009.25,0016.28,0008.37
2023-01-14 11:53:00,,0821.1,5.01,0.00,23.3,22.0,00.0,32.1,25.1,14.0,0004.7,0009.60,0016.76,0008.66
2023-01-14 11:54:00,,0821.1,5.00,0.00,23.3,22.0,00.0,32.1,25.0,14.1,0004.4,0009.96,0017.59,0008.96
2023-01-14 11:55:00,,0821.2,5.00,0.00,23.3,22.0,00.0,32.1,25.0,13.9,0004.4,0010.21,0018.34,0009.21
2023-01-14 11:56:00,,0821.1,5.00,0.00,23.3,22.0,00.0,32.1,25.0,13.8,0004.5,0009.97,0017.52,0009.02
2023-01-14 11:57:00,,0821.0,4.99,0.00,23.3,22.0,00.0,32.1,25.1,13.3,0004.9,0009.65,0017.17,0008.73
2023-01-14 11:58:00,,0821.0,5.00,0.00,23.3,22.0,00.0,32.1,25.1,12.8,0004.6,0009.29,0016.66,0008.41
2023-01-14 11:59:00,,0820.9,5.00,0.00,23.3,22.0,00.0,32.1,25.1,12.6,0004.0,0008.70,0015.79,0007.92
